www.pogodaiklimat.ru

Погода и климат >> Архив погоды >> Беларусь >> Воложин


ПОГОДА в Воложине

  • Прогноз погоды в Воложине
  • Монитор погоды в Воложине

АРХИВ ПОГОДЫ в Воложине

Время (UTC), дата Ветер
(напр.,м/с)
 
Видим.   Явления Облачность Т
(С)
Тd
(С)
f
(%)
Тe
(С)
Тes
(С)
Комфортность P
(гПа)
Po
(гПа)
Тmin
(С)
Tmax
(С)
R
(мм)
R24
(мм)
S
(см)
03 15.08 З 2 4600 м дымка 9/0
[Ac As]
+11.4 +11.2 99 +10 +10 1015.0 996.3 +11.3
06 15.08 З 2 15 км {туман} 8/8 600 м
[Cu med, cong]
+13.1 +12.3 95 +12 +12 1016.0 997.4 +11.0 2
09 15.08 З 2 35 км 8/8 600 м
[Cu med, cong]
+17.5 +10.4 63 +18 +18 1016.0 997.7
12 15.08 С 1 35 км 6/6 600 м
[Cu med, cong]
+20.1 +9.9 52 +23 +28 комфорт 1016.0 997.9
15 15.08 ЮЗ 2 35 км 6/6 600 м
[Cu med, cong]
+20.2 +8.8 48 +22 +23 комфорт 1015.0 996.9
18 15.08 штиль 0 35 км 3/0
[Ac trans]
+16.8 +10.2 65 +17 +17 1016.0 997.7 +21.1
21 15.08 штиль 0 35 км 4/0
[Ac trans]
+12.9 +9.7 81 +12 +12 1017.0 998.4
00 16.08 штиль 0 35 км 3/0
[Ac trans]
+12.2 +9.2 82 +12 +12 1017.0 998.3
03 16.08 штиль 0 35 км 4/0
[Ac lent]
+11.2 +8.6 84 +11 +11 1017.0 998.3 +9.8
06 16.08 штиль 0 35 км 3/0
[Ci fib]
+16.2 +12.2 77 +16 +20 1017.0 998.6 +9.8
09 16.08 ЮВ 1 35 км 6/4 1000 м
[Cu med, cong Ci fib]
+20.4 +10.2 52 +23 +28 комфорт 1016.0 997.9
12 16.08 СЗ 2 30 км 8/8 600 м
[Cu med, cong]
+21.5 +8.7 44 +23 +23 комфорт 1016.0 997.9
15 16.08 С 2 35 км 6/6 600 м
[Sc diur, vesp]
+20.8 +8.7 46 +23 +24 комфорт 1015.0 996.9
18 16.08 СВ 1 35 км 4/0
[Ac trans]
+17.2 +11.2 68 +18 +18 1016.0 997.7 +22.1
21 16.08 штиль 0 35 км ясно +15.8 +10.8 72 +16 +16 1017.0 998.6
00 17.08 штиль 0 35 км ясно +14.1 +9.5 74 +14 +14 1017.0 998.5
03 17.08 С 1 35 км ясно +12.5 +9.0 79 +13 +13 1017.0 998.4 +12.5
06 17.08 СВ 1 35 км ясно +18.1 +11.6 66 +19 +24 1017.0 998.7 +12.4
09 17.08 СВ 2 35 км 6/6 1000 м
[Cu med, cong]
+21.1 +11.1 53 +23 +27 комфорт 1017.0 998.9
12 17.08 С 2 28 км 6/6 600 м
[Cu med, cong]
+22.2 +8.7 42 +24 +28 комфорт 1015.0 997.0
15 17.08 С 2 35 км 6/6 600 м
[Cu med, cong]
+22.0 +9.2 44 +23 +25 комфорт 1014.0 996.0
18 17.08 СВ 3 35 км ясно +18.3 +11.4 64 +19 +19 1015.0 996.8 +23.5
21 17.08 СВ 1 35 км ясно +15.9 +9.3 65 +17 +17 1015.0 996.6
00 18.08 СВ 1 35 км ясно +15.2 +8.2 63 +16 +16 1015.0 996.6
03 18.08 СВ 1 35 км ясно +12.6 +8.7 77 +13 +13 1014.0 995.4 +12.6
06 18.08 штиль 0 35 км ясно +17.2 +10.8 66 +17 +23 1014.0 995.7 +12.3
09 18.08 ЮЗ 1 35 км 3/0
[Ci fib]
+22.4 +11.2 49 +25 +34 комфорт 1013.0 995.1
12 18.08 ЮЗ 2 30 км 4/4 1000 м
[Cu hum]
+24.9 +9.6 38 +26 +33 жарко 1012.0 994.2
15 18.08 Ю 1 35 км 3/3 1000 м
[Cu hum]
+24.9 +10.7 41 +26 +28 жарко 1012.0 994.2
18 18.08 В 1 35 км 3/0
[Ac trans]
+21.6 +12.4 56 +24 +24 комфорт 1013.0 995.0 +26.3
21 18.08 ЮВ 1 35 км 3/0
[Ci fib]
+18.5 +12.0 66 +20 +20 1013.0 994.8
00 19.08 ЮВ 2 35 км 4/0
[Ci fib]
+17.0 +12.5 75 +17 +17 1014.0 995.7
03 19.08 ЮВ 1 35 км 4/0
[Ac trans]
+15.8 +12.7 82 +16 +16 1014.0 995.6 +15.6
06 19.08 ЮВ 2 30 км 9/0
[Ac As]
+17.9 +13.8 77 +18 +18 1014.0 995.8 +15.6
09 19.08 Ю 5 35 км 3/0
[Ac trans]
+25.8 +17.2 59 +30 +34 душно 1014.0 996.3
12 19.08 ЮЗ 5 35 км 6/6 1000 м
[Cu med, cong]
+29.0 +17.2 49 +33 +35 очень
душно
1014.0 996.5
15 19.08 Ю 4
{10}
35 км 6/6 1000 м
[Cu med, cong]
+28.9 +18.0 52 +34 +34 очень
душно
1014.0 996.5
18 19.08 ЮЗ 1
{12}
35 км в посл. час гроза {ливн. осадки} 9/6 600 м
[Cb cap Ac As]
+21.2 +15.9 72 +25 +25 комфорт 1016.0 998.0 +29.7 0.0
21 19.08 ЮВ 1 35 км гроза, ливневой дождь 9/8 600 м
[Cb cap Ac As]
+19.2 +18.0 93 +22 +22 комфорт 1018.0 999.8
00 20.08 С 2 4600 м гроза, ливневой дождь 9/8 300 м
[Cb cap Ac As]
+17.0 +16.8 99 +17 +17 1020.0 1001.6
03 20.08 штиль 0 11 км в посл. час ливневой дождь {гроза} 9/4 600 м
[Cb cap Ac As]
+16.7 +16.7 100 +17 +17 1020.0 1001.6 +16.7
06 20.08 СЗ 1 30 км {гроза, ливн. осадки} 9/3 600 м
[Cb cap Ac As]
+17.7 +17.5 99 +19 +19 1021.0 1002.7 +16.7 22
09 20.08 ЮЗ 1 35 км 8/6 600 м
[Cb calv Ci fib]
+21.8 +17.4 76 +26 +26 душно 1022.0 1003.9
12 20.08 Ю 2 35 км 8/5 600 м
[Cb calv Ci fib]
+21.9 +17.9 78 +27 +31 душно 1021.9 995.1
15 20.08 В 1 35 км 8/5 600 м
[Cb calv Ci fib]
+22.9 +17.8 73 +28 +28 душно 1022.0 1004.0
18 20.08 СВ 1 35 км 8/0
[Ac trans]
+20.1 +17.9 87 +24 +24 комфорт 1023.0 1004.8 +23.4
21 20.08 СВ 1 35 км 9/0
[Ac As]
+18.8 +17.3 91 +21 +21 комфорт 1024.0 1005.7
00 21.08 СВ 2 30 км 8/0
[Ac trans]
+18.2 +17.0 93 +19 +19 1023.0 1004.7
03 21.08 СВ 3 10 км 10 баллов +18.3 +17.6 96 +19 +19 1022.0 1003.7 +18.0
06 21.08 В 4 10 км 10 баллов +20.4 +18.2 87 +24 +24 комфорт 1020.0 1001.9 +18.0
09 21.08 Ю 3 10 км 10 баллов +21.7 +18.7 83 +27 +27 душно 1018.0 1000.0
12 21.08 ЮЗ 4 10 км 10 баллов +26.6 +19.2 64 +32 +32 очень
душно
1016.0 998.3
15 21.08 ЮЗ 6
{13}
10 км 10 баллов +17.8 +14.9 83 +17 +17 1020.0 1001.7
18 21.08 СЗ 3
{14}
10 км 10 баллов +14.5 +12.9 90 +14 +14 1023.0 1004.4 +26.7
21 21.08 СЗ 2 10 км 10 баллов +14.1 +12.1 88 +14 +14 1026.0 1007.3
00 22.08 СЗ 2 10 км 6 баллов +11.7 +10.8 94 +10 +10 1027.0 1008.1

 

Местоположение метеостанции Воложин (Минская область, Беларусь): широта 54.09 долгота 26.52 высота над уровнем моря 155 м.

В архиве по умолчанию представлена погода в Воложине за последнюю неделю. Архивные данные за месяц целиком и за предыдущие месяцы, начиная с января 2011 года, Вы можете получить, выбрав интересующий диапазон дат из раскрывающегося списка и нажав кнопку "Ввод!".


*Определитесь, кто Вы:
робот инопланетянин человек

Внимание! Время в таблицах - всемирное. Для получения местного времени необходимо прибавить поправку, которая равна 3 ч.

Смотрите также архив погоды в соседних городах и на ближайших метеорологических станциях:

Погода в Ошмянах (Гродненская область, Беларусь) (54 км)
Погода в Вилейке (Минская область, Беларусь) (56 км)
Погода в Столбцах (Минская область, Беларусь) (69 км)
Погода в Новогрудке (Гродненская область, Беларусь) (70 км)
Погода в Минске (город Минск, Беларусь) (78 км)
Погода в Лиде (Гродненская область, Беларусь) (81 км)
Погода в Нарочи (Минская область, Беларусь) (95 км)
Погода в Вильнюсе (Литва) (100 км)
Погода в Лынтупах (Витебская область, Беларусь) (108 км)
Погода в Барановичах (Брестская область, Беларусь) (113 км)

Пояснения к столбцам:

Ветер - указаны скорость ветра в м/с - средняя за 10 мин, порывы в срок и между сроками (в фигурных скобках) и направление, откуда дует ветер: С - северный, СВ - северо-восточный, В - восточный, ЮВ - юго-восточный, Ю - южный, ЮЗ - юго-западный, З - западный, СЗ - северо-западный.
Видимость - горизонтальная дальность видимости в метрах или километрах. При видимости от 1 до 10 км при отсутствии осадков обычно наблюдается дымка, при ухудшении видимости до 1 км и менее - туман. В сухую погоду видимость может ухудшаться дымом, пылью или мглою.
Явления - указаны атмосферные явления, наблюдавшиеся в срок или в последний час перед сроком; фигурными скобками обозначены явления, наблюдавшиеся между сроками (за 1-3 часа до срока); квадратными скобками обозначены град или гололедные отложения с указанием их диаметра в мм.
Облачность - указаны через наклонную черту общая и нижняя облачность в баллах и высота нижней границы облаков в метрах; квадратными скобками обозначены формы облаков: Ci - перистые, Cs - перисто-слоистые, Cc - перисто-кучевые, Ac - высококучевые, As - высокослоистые, Sc - слоисто-кучевые, Ns - слоисто-дождевые, Cu - кучевые, Cb - кучево-дождевые. Подробнее классификацию облаков см. в Атласе облаков (PDF).
T - Температура воздуха - температура, измеренная на высоте 2 м над землей.
Td - Температура точки росы - температура, при понижении до которой содержащийся в воздухе водяной пар достигнет насыщения.
f - Относительная влажность воздуха - влажноcть воздуха, измеренная на высоте 2 м над землей.
Te - Эффективная температура - температура, которую ощущает одетый по сезону человек в тени. Характеристика душности погоды. При расчете учитывается влияние влажности воздуха и скорости ветра на теплоощущения человека.
Tes - Эффективная температура на солнце - температура, которую ощущает человек, с поправкой на солнечный нагрев. Характеристика знойности погоды. Зависит от высоты солнца над горизонтом, облачности и скорости ветра. Ночью, в пасмурную погоду, а также при ветре 12 м/с и более поправка равна нулю.
P - Атмосферное давление - приведенное к уровню моря атмосферное давление.
Po - Атмосферное давление - измеренное на уровне метеостанции атмосферное давление.
Tmin - Минимальная температура - минимум температуры воздуха на высоте 2 м над землей.
Tmax - Максимальная температура - максимум температуры воздуха на высоте 2 м над землей.
R - Количество осадков - Количество выпавших осадков за период времени, мм. При наведении курсора мыши на число - период времени, за который выпало указанное количество осадков.
R24 - Количество осадков - Количество выпавших осадков за 24 часа, мм.
S - Снежный покров - Высота снежного покрова, см. При наведении курсора мыши на число - состояние снежного покрова и степень покрытия местности в баллах.